Flag for Mauritania Weather past 2 weeks in Nouadhibou, Mauritania

Now
68 °F

Sandstorm.


Feels Like: 68 °F
Forecast: N/A
Wind: 22 mph from Northwest

Location: Nouadhibou Airport

Current Time: May 22, 2015 at 7:23:40 PM

Latest Report: May 22, 2015 at 7:00 PM


Visibility: 4 mi

Pressure: 30.04 "Hg

Humidity: 73%

Dew point: 59 °F

Location of NouadhibouLocation

Historic Weather in Nouadhibou — Graph

°F

Nouadhibou temperature yesterday

Maximum temperature yesterday: 84 °F (at 2:00 PM)
Minimum temperature yesterday: 63 °F (at 5:00 AM)
Average temperature yesterday: 69 °F

Past Weeks' High & Low Weather Summary

 TemperatureHumidityPressure
High108 °F (May 16, 2:00 PM)94% (May 11, 8:00 AM)32.75 "Hg (May 11, 8:00 AM)
Low63 °F (May 21, 5:00 AM)9% (May 16, 1:00 PM)29.74 "Hg (May 15, 6:00 PM)
Average72 °F69%29.90 "Hg
* Reported May 7 6:00 PM — May 22 6:00 PM, Nouadhibou, Weather by CustomWeather, © 2015

Note: Actual official high and low records may vary slightly from our data, if they occured in-between our weather recording intervals... More about our weather records

Advertising

Nouadhibou weather history for previous 24 hours

 ConditionsComfort  
Time TempWeatherWind HumidityBarometerVisibility
6:00 PM
Fri, May 22
70 °FSandstorm.23 mph69%30.01 "Hg2 mi
5:00 PM72 °FSandstorm.22 mph65%30.01 "Hg2 mi
4:00 PM73 °FSandstorm.21 mph61%30.01 "Hg4 mi
3:00 PM75 °FSandstorm.17 mph57%30.04 "Hg5 mi
2:00 PM82 °FSandstorm.21 mph32%30.04 "Hg5 mi
1:00 PM81 °FSandstorm.22 mph37%30.07 "Hg5 mi
12:00 PM77 °FSandstorm.23 mph44%30.09 "Hg5 mi
11:00 AM73 °FSandstorm.25 mph50%30.09 "Hg5 mi
10:00 AM68 °FClear.24 mph64%30.09 "Hg5 mi
9:00 AM66 °FClear.24 mph73%30.09 "Hg5 mi
8:00 AM64 °FScattered clouds.26 mph78%30.09 "Hg5 mi
7:00 AM63 °FPassing clouds.26 mph83%30.04 "Hg5 mi
6:00 AM63 °FSandstorm.26 mph77%30.01 "Hg4 mi
5:00 AM63 °FSandstorm.26 mph83%30.01 "Hg4 mi
4:00 AM63 °FSandstorm.25 mph83%30.01 "Hg4 mi
3:00 AM64 °FSandstorm.25 mph78%30.01 "Hg4 mi
2:00 AM64 °FSandstorm.23 mph78%30.04 "Hg4 mi
1:00 AM64 °FSandstorm.23 mph83%30.07 "Hg4 mi
12:00 AM66 °FPassing clouds.21 mph73%30.07 "Hg4 mi
11:00 PM
Thu, May 21
66 °FClear.22 mph73%30.07 "Hg4 mi
10:00 PM66 °FClear.22 mph73%30.04 "Hg4 mi
9:00 PM68 °FClear.20 mph69%30.01 "Hg4 mi
8:00 PM68 °FClear.16 mph73%29.98 "Hg4 mi
7:00 PM70 °FSandstorm.18 mph69%29.98 "Hg2 mi
Weather by CustomWeather, © 2015

See weather overviewHow to use our weather pages